Regional Weather Roundup
Issued by NWS

Home | Current Version | Previous Version | Graphics & Text | Print | Product List | Glossary On
Versions: 1 2 3 4 5 6 7 8 9 10 11 12 13 14 15 16 17 18 19 20 21 22 23 24 25 26 27 28 29 30 31 32 33 34 35 36 37 38 39 40 41 42 43 44 45 46 47 48 49 50
000
ASUS43 KMKX 301221
RWRWI

WISCONSIN REGIONAL WEATHER ROUNDUP
NATIONAL WEATHER SERVICE MILWAUKEE/SULLIVAN WI
700 AM CDT THU OCT 30 2014

NOTE: "FAIR" INDICATES FEW OR NO CLOUDS BELOW 12,000 FEET WITH NO
SIGNIFICANT WEATHER AND/OR OBSTRUCTIONS TO VISIBILITY.

WIZ001-002-006>008-014>016-023>028-301300-
NORTHWEST WISCONSIN

CITY           SKY/WX    TMP DP  RH WIND       PRES   REMARKS
SUPERIOR ARPT  CLOUDY    36  33  91 CALM      30.07R
6HR MIN TEMP:  34; 6HR MAX TEMP:  38;

ASHLAND        CLOUDY    38  33  82 SW3       30.06S
6HR MIN TEMP:  38; 6HR MAX TEMP:  40;

HAYWARD        CLOUDY    36  33  89 CALM      30.05S
6HR MIN TEMP:  36; 6HR MAX TEMP:  38;

SIREN          MOCLDY    34  32  94 CALM      30.06R
6HR MIN TEMP:  34; 6HR MAX TEMP:  38;

CUMBERLAND     CLOUDY    34  32  93 CALM      30.05S
RICE LAKE      CLOUDY    35  33  94 CALM      30.06S
6HR MIN TEMP:  32; 6HR MAX TEMP:  35;

CHETEK         CLOUDY    34  32  94 CALM      30.06S
6HR MIN TEMP:  32; 6HR MAX TEMP:  34;

LADYSMITH      CLOUDY    36  34  92 CALM      30.06F
6HR MIN TEMP:  34; 6HR MAX TEMP:  37;

EAU CLAIRE     CLOUDY    35  32  88 CALM      30.06S
6HR MIN TEMP:  34; 6HR MAX TEMP:  36;

MENOMONIE      CLOUDY    36  34  93 E3        30.06S
6HR MIN TEMP:  35; 6HR MAX TEMP:  36;

NEW RICHMOND   CLOUDY    37  35  92 SE5       30.04F WCI  33
6HR MIN TEMP:  33; 6HR MAX TEMP:  37;

OSCEOLA        CLOUDY    38  37  97 NE3       30.07S
6HR MIN TEMP:  35; 6HR MAX TEMP:  38;

$$

WIZ003>005-009-010-017-018-301300-
NORTH CENTRAL WISCONSIN

CITY           SKY/WX    TMP DP  RH WIND       PRES   REMARKS
MANITOWISH WTR CLOUDY    36  33  90 CALM      30.02S
6HR MIN TEMP:  35; 6HR MAX TEMP:  36;

ARBOR VITAE    CLOUDY    37  33  87 CALM      30.03S
6HR MIN TEMP:  37; 6HR MAX TEMP:  38;

WOODRUFF       CLOUDY    37  33  87 CALM      30.03S
6HR MIN TEMP:  37; 6HR MAX TEMP:  38;

RHINELANDER    CLOUDY    36  31  82 SW7       30.04S WCI  30
6HR MIN TEMP:  36; 6HR MAX TEMP:  37;

EAGLE RIVER    CLOUDY    36  31  84 CALM      30.02F
6HR MIN TEMP:  35; 6HR MAX TEMP:  37;

LAND O LAKES   CLOUDY    36  33  89 CALM      30.03S
6HR MIN TEMP:  36; 6HR MAX TEMP:  38;

PHILLIPS       CLOUDY    35  32  88 SW5       30.03F WCI  31
6HR MIN TEMP:  35; 6HR MAX TEMP:  37;

TOMAHAWK       CLOUDY    34  31  89 CALM      30.05S
6HR MIN TEMP:  34; 6HR MAX TEMP:  36;

MEDFORD        CLOUDY    32  31  98 CALM      30.04F
6HR MIN TEMP:  30; 6HR MAX TEMP:  32;

MERRILL        CLOUDY    31  31 100 CALM      30.05F
6HR MIN TEMP:  31; 6HR MAX TEMP:  32;

$$

WIZ029-030-035-036-043>047-301300-
CENTRAL WISCONSIN

CITY           SKY/WX    TMP DP  RH WIND       PRES   REMARKS
WAUSAU         CLOUDY    34  31  88 CALM      30.05S
6HR MIN TEMP:  32; 6HR MAX TEMP:  34;

MOSINEE        PTCLDY    32  32 100 CALM      30.07R
MARSHFIELD     CLOUDY    33  31  92 CALM      30.06R
6HR MIN TEMP:  32; 6HR MAX TEMP:  34;

STEVENS POINT  CLOUDY    30  30  98 CALM      30.07S
6HR MIN TEMP:  27; 6HR MAX TEMP:  31;

WAUPACA        CLOUDY    34  33  94 CALM      30.08F
6HR MIN TEMP:  32; 6HR MAX TEMP:  35;

WAUTOMA        CLOUDY    31  30  96 CALM      30.09S
6HR MIN TEMP:  28; 6HR MAX TEMP:  31;

WISC RAPIDS    CLOUDY    33  32  96 CALM      30.09S
6HR MIN TEMP:  30; 6HR MAX TEMP:  34;

CAMP DOUGLAS   CLOUDY    32  32 100 SE3       30.08S
6HR MIN TEMP:  27; 6HR MAX TEMP:  32;

$$

WIZ011>013-019>022-031-037>040-048>050-301300-
NORTHEAST WISCONSIN

CITY           SKY/WX    TMP DP  RH WIND       PRES   REMARKS
ANTIGO         CLOUDY    32  32  99 CALM      30.05S
6HR MIN TEMP:  31; 6HR MAX TEMP:  34;

SHAWANO        CLOUDY    37  34  87 CALM      30.08S
6HR MIN TEMP:  36; 6HR MAX TEMP:  39;

OCONTO         CLOUDY    37  36  93 CALM      30.07S
6HR MIN TEMP:  34; 6HR MAX TEMP:  40;

STURGEON BAY   CLOUDY    41  34  75 S6        30.08S
6HR MIN TEMP:  39; 6HR MAX TEMP:  43;

GREEN BAY      CLOUDY    37  35  92 S3        30.08F
6HR MIN TEMP:  36; 6HR MAX TEMP:  42;

MANITOWOC      MOCLDY    38  35  89 W5        30.10S WCI  34
6HR MIN TEMP:  38; 6HR MAX TEMP:  43;

APPLETON       MOCLDY    36  34  93 CALM      30.08S
CLINTONVILLE   CLOUDY    34  32  93 CALM      30.07F
OSHKOSH        CLOUDY    35  32  88 S5        30.08F WCI  31
6HR MIN TEMP:  32; 6HR MAX TEMP:  37;

$$

WIZ032>034-041-042-053>061-301300-
SOUTHWEST WISCONSIN

CITY           SKY/WX    TMP DP  RH WIND       PRES   REMARKS
LA CROSSE      CLOUDY    38  35  89 SE6       30.08S WCI  33
6HR MIN TEMP:  36; 6HR MAX TEMP:  38;

SPARTA         MOCLDY    31  31 100 CALM      30.09S
6HR MIN TEMP:  28; 6HR MAX TEMP:  31;

VIROQUA        CLOUDY    36  33  87 S5        30.07S WCI  32
6HR MIN TEMP:  34; 6HR MAX TEMP:  37;

BOSCOBEL       FOG       32  30  92 CALM      30.11S VSB 1/4
6HR MIN TEMP:  29; 6HR MAX TEMP:  32;

PRAIRIE DU CHI CLOUDY    34  32  94 SE3       30.09F
6HR MIN TEMP:  32; 6HR MAX TEMP:  34;

PLATTEVILLE    CLOUDY    35  32  90 SE3       30.10S
6HR MIN TEMP:  33; 6HR MAX TEMP:  35;

$$

WIZ056-057-062-063-064-067-068-301300-
SOUTH CENTRAL WISCONSIN

CITY           SKY/WX    TMP DP  RH WIND       PRES   REMARKS
REEDSBURG      PTCLDY    32  31  96 CALM      30.09S
6HR MIN TEMP:  29; 6HR MAX TEMP:  32;

BARABOO/DELLS  PTCLDY    33  31  96 CALM      30.09R
6HR MIN TEMP:  30; 6HR MAX TEMP:  33;

LONE ROCK      MOCLDY    36  30  79 CALM      30.10S
6HR MIN TEMP:  33; 6HR MAX TEMP:  36;

MINERAL POINT  PTCLDY    36  32  87 CALM      30.09S
MADISON        MOCLDY    34  32  92 CALM      30.10S
6HR MIN TEMP:  31; 6HR MAX TEMP:  34;

MIDDLETON      MOCLDY    37  33  85 CALM      30.09F
6HR MIN TEMP:  32; 6HR MAX TEMP:  37;

WATERTOWN      PTCLDY    30  29  98 CALM      30.10S
6HR MIN TEMP:  29; 6HR MAX TEMP:  31;

MONROE         PTCLDY    34  32  93 SW7       30.09S WCI  28
JANESVILLE     CLEAR     32  30  93 CALM      30.10F
$$

WIZ051-052-058>065-066-070>072-301300-
SOUTHEAST WISCONSIN

CITY           SKY/WX    TMP DP  RH WIND       PRES   REMARKS
MILWAUKEE      MOCLDY    36  31  82 SW3       30.11S
6HR MIN TEMP:  32; 6HR MAX TEMP:  40;

WAUKESHA       CLEAR     30  28  93 CALM      30.12S
MILWAUKEE/TIMM CLEAR     34  28  80 CALM      30.11F
RACINE         PTCLDY    36  31  82 W3        30.13S
6HR MIN TEMP:  34; 6HR MAX TEMP:  38;

BURLINGTON     PTCLDY    28  28  99 CALM      30.12S
6HR MIN TEMP:  27; 6HR MAX TEMP:  29;

KENOSHA        PTCLDY    35  32  88 SW3       30.12S
6HR MIN TEMP:  30; 6HR MAX TEMP:  35;

FOND DU LAC    MOCLDY    32  30  92 S5        30.10S WCI  27
6HR MIN TEMP:  30; 6HR MAX TEMP:  34;

SHEBOYGAN      MOCLDY    34  31  88 S3        30.10S
6HR MIN TEMP:  30; 6HR MAX TEMP:  36;

WEST BEND      MOCLDY    32  30  93 CALM      30.10S
JUNEAU         PTCLDY    31  29  94 CALM      30.10S
6HR MIN TEMP:  31; 6HR MAX TEMP:  32;

$$

LSZ147-162-301300-
LAKE SUPERIOR

STATION/POSITION TIME  TEMP    WIND        PRES    WAVE
                       AIR SEA DIR/SP/G            HT/PER
                 (UTC) (F)     (DEG/KT/KT) (MB)    (FT/S)
W MID LAKE BUOY  1150   42 45  250/ 12/ 16 1017.2R
DEVILS ISLAND    1200   40     280/ 10/ 11 1017.8F
PORT WING        1140   39     230/  4/  7 1017.9S
SAXON HARBOR     1100   40     260/  2/  7 1017.9
$$

LMZ867-665-643>646-301300-
LAKE MICHIGAN




USA.gov is the U.S. government's official web portal to all federal, state and local government web resources and services.